Location: Laverne
(36.7100°N, 99.8930°W)
Time: 03:35:57
(UTC-06:00)

Meteor 2-16 Rocket - Pass Details

Date: 19 October 2017
Orbit: 942 x 956 km, 82.6° (Epoch: 23 November)

Event Time Altitude Azimuth Distance (km) Brightness Sun altitude
Rises 06:43:22 0° 351° (N) 3,641 7.4 -14.3°
Reaches altitude 10° 06:45:52 10° 351° (N) 2,692 6.7 -13.8°
Maximum altitude 06:52:02 83° 266° (W) 967 4.4 -12.5°
Drops below altitude 10° 06:58:10 10° 178° (S) 2,673 6.9 -11.3°
Sets 07:00:39 0° 177° (S) 3,613 7.6 -10.8°
